Regional Weather Roundup
Issued by NWS

Home | Current Version | Previous Version | Text Only | Print | Product List | Glossary On
Versions: 1 2 3 4 5 6 7 8 9 10 11 12 13 14 15 16 17 18 19 20 21 22 23 24 25 26 27 28 29 30 31 32 33 34 35 36 37 38 39 40 41 42 43 44 45 46 47 48 49 50
000
ASUS43 KBIS 040720
RWRND

NORTH DAKOTA REGIONAL WEATHER ROUNDUP
NATIONAL WEATHER SERVICE BISMARCK ND
100 AM CST WED MAR 04 2015

NOTE: "FAIR" INDICATES FEW OR NO CLOUDS BELOW 12,000 FEET WITH NO
SIGNIFICANT WEATHER AND/OR OBSTRUCTIONS TO VISIBILITY.


NDZ001>003-009>011-017-040800-
NORTHWEST NORTH DAKOTA

CITY           SKY/WX    TMP DP  RH WIND       PRES   REMARKS
WILLISTON      CLEAR     -4 -13  65 NW14      30.13R WCI -24
MINOT          PTCLDY    -4 -11  72 W12       30.04R WCI -22
MINOT AFB      CLEAR     -5 -11  73 NW13      30.04R WCI -24
$$

NDZ018>021-031>035-040>046-040800-
SOUTHWEST NORTH DAKOTA

CITY           SKY/WX    TMP DP  RH WIND       PRES   REMARKS
BISMARCK       LGT SNOW   3  -2  79 NW7       30.07R WCI  -9
DICKINSON      PTCLDY     3  -7  63 NW14      30.01R WCI -15
GARRISON         N/A      1  -4  79 NW14      30.02R WCI -17
HETTINGER ARPT LGT SNOW   8   1  73 NW20G31   30.03R WCI -11
$$

NDZ004>008-012>016-024-026-027-054-040800-
NORTHEAST NORTH DAKOTA

CITY           SKY/WX    TMP DP  RH WIND       PRES   REMARKS
GRAND FORKS    CLEAR     -2 -10  69 W12       30.04S WCI -20
GRND FRKS AFB  CLEAR     -2 -12  62 NW10      30.03S WCI -19
DEVILS LAKE    CLEAR     -6 -15  65 W13       30.00R WCI -25
$$

NDZ022-023-025-028>030-036>039-047>053-040800-
SOUTHEAST NORTH DAKOTA

CITY           SKY/WX    TMP DP  RH WIND       PRES   REMARKS
FARGO          CLEAR      1  -9  62 W13       30.07S WCI -17
JAMESTOWN      CLEAR     -2 -12  62 W8        30.02S WCI -17
$$



USA.gov is the U.S. government's official web portal to all federal, state and local government web resources and services.